Home > Weather > Myrtle Beach > Past weeks

Flag for USA Past Weather in Myrtle Beach, South Carolina, USA — Yesterday and Last 2 Weeks

Now
82 °F

Sunny.


Feels Like: 85 °F
Forecast: 72 / 86 °F
Wind: 9 mph from North

Location: Myrtle Beach Air Force Base

Current Time: Aug 25, 2016 at 11:09:57 AM

Latest Report: Aug 25, 2016 at 9:45 AM


Visibility: 10 mi

Pressure: 30.18 "Hg

Humidity: 58%

Dew Point: 66 °F

Location of Myrtle BeachLocation

Past Weather in Myrtle Beach — Graph

°F

Myrtle Beach Temperature Yesterday

Maximum temperature yesterday: 90 °F (at 3:45 PM)
Minimum temperature yesterday: 72 °F (at 6:46 AM)
Average temperature yesterday: 80 °F

High & Low Weather Summary for the Past Weeks

 TemperatureHumidityPressure
High97 °F (Aug 21, 1:45 PM)79% (Aug 15, 6:45 AM)30.29 "Hg (Aug 15, 6:45 AM)
Low70 °F (Aug 25, 3:55 AM)33% (Aug 24, 4:50 PM)29.86 "Hg (Aug 20, 5:45 PM)
Average82 °F63%30.11 "Hg
* Reported Aug 10 9:45 AM — Aug 25 9:45 AM, Myrtle Beach, Weather by CustomWeather, © 2016

Note: Actual official high and low records may vary slightly from our data, if they occured in-between our weather recording intervals... More about our weather records

Advertising

Myrtle Beach Weather History for the Previous 24 Hours

Scroll right to see more
 ConditionsComfort  
Time TempWeatherWind HumidityBarometerVisibility
9:45 AM
Thu, Aug 25
82 °FSunny.9 mph58%30.18 "Hg10 mi
8:45 AM77 °FPassing clouds.9 mph61%30.18 "Hg10 mi
7:45 AM72 °FSunny.8 mph69%30.17 "Hg10 mi
6:46 AM72 °FClear.6 mph65%30.16 "Hg10 mi
5:50 AM72 °FClear.7 mph65%30.16 "Hg10 mi
5:35 AM72 °FClear.6 mph61%30.15 "Hg10 mi
5:15 AM72 °FClear.5 mph61%30.15 "Hg10 mi
4:55 AM72 °FClear.6 mph61%30.16 "Hg10 mi
4:35 AM72 °FPassing clouds.No wind61%30.16 "Hg10 mi
4:15 AM70 °FPassing clouds.No wind64%30.16 "Hg10 mi
3:55 AM70 °FPassing clouds.No wind64%30.17 "Hg10 mi
3:35 AM72 °FPassing clouds.No wind61%30.17 "Hg10 mi
3:15 AM73 °FPassing clouds.3 mph57%30.17 "Hg10 mi
2:55 AM72 °FPassing clouds.5 mph61%30.17 "Hg10 mi
2:35 AM72 °FClear.5 mph61%30.17 "Hg10 mi
2:15 AM72 °FClear.5 mph61%30.18 "Hg10 mi
1:55 AM72 °FClear.5 mph61%30.19 "Hg10 mi
1:35 AM72 °FClear.3 mph61%30.19 "Hg10 mi
1:15 AM73 °FClear.3 mph57%30.19 "Hg10 mi
12:55 AM72 °FClear.3 mph61%30.19 "Hg10 mi
12:15 AM75 °FClear.5 mph54%30.20 "Hg10 mi
11:55 PM
Wed, Aug 24
73 °FClear.3 mph57%30.20 "Hg10 mi
11:35 PM75 °FClear.3 mph54%30.21 "Hg10 mi
11:15 PM75 °FClear.5 mph54%30.20 "Hg10 mi
10:55 PM72 °FClear.3 mph61%30.22 "Hg10 mi
9:45 PM79 °FPassing clouds.6 mph48%30.21 "Hg10 mi
8:45 PM81 °FScattered clouds.6 mph48%30.20 "Hg10 mi
7:50 PM81 °FScattered clouds.7 mph54%30.20 "Hg10 mi
6:45 PM82 °FPassing clouds.10 mph51%30.19 "Hg10 mi
5:45 PM88 °FScattered clouds.7 mph35%30.19 "Hg10 mi
4:50 PM90 °FScattered clouds.8 mph33%30.19 "Hg10 mi
3:45 PM90 °FScattered clouds.9 mph36%30.21 "Hg10 mi
2:45 PM88 °FScattered clouds.9 mph35%30.23 "Hg10 mi
1:45 PM88 °FPartly sunny.10 mph40%30.25 "Hg10 mi
12:45 PM88 °FScattered clouds.12 mph38%30.27 "Hg10 mi
11:45 AM88 °FPassing clouds.12 mph38%30.29 "Hg10 mi
Weather by CustomWeather, © 2016

See weather overviewHow to use our weather pages